カタログに戻る

STARLINK-36225

運用中通信VLEO
NORAD 67207·PAYLOAD·🇺🇸 United States

打ち上げ Dec 17, 2025 から Vandenberg Space Force Base

Loading…

次のパス (今後24時間)

TLE

最新Source: CelesTrak SupGP

元期: Sep 15, 2026, 03:20 UTC

1 67207C 25304R   26258.13937500 -.00089483  00000+0 -74887-2 0  2584
2 67207  70.0014  56.8365 0002625 266.0445   0.7177 14.98429925    17

AllMySatでSTARLINK-36225をリアルタイム追跡

Download on the App Store